NUSAT-9 (ALICE)

Last updated on Wed Oct 04 2023 00:02:25 GMT+0000 (Coordinated Universal Time)

1 46828U 20079B 23275.86681023 .06099032 23258-5 94181-3 0 9999 2 46828 97.0919 350.4269 0010990 266.8171 93.1869 16.33943729163557

Satellite not in orbit